Location: Bord�res
(43.2000°N, 0.2167°W)
Time: 14:20:23
(UTC+00:00)

Cosmos 44 Rocket - Pass Details

Date: 03 March 2021
Orbit: 636 x 754 km, 65.1° (Epoch: 13 April)

Event Time Altitude Azimuth Distance (km) Brightness Sun altitude
Rises 18:20:07 0° 329° (NNW) 3,209 7.1 -5.8°
Reaches altitude 10° 18:22:34 10° 333° (NNW) 2,285 6.3 -6.3°
Maximum altitude 18:27:44 56° 52° (NE) 893 3.6 -7.2°
Drops below altitude 10° 18:32:50 10° 131° (SE) 2,255 5.5 -8.1°
Sets 18:35:14 0° 135° (SE) 3,163 6.3 -8.6°
